When you browse on this site, cookies collect data to enhance your experience and personalize the content and advertising you see.
Visit our Privacy Policy to learn more. By continuing to use the site, you agree to this use of cookies and data.
  • In Hungary
  • List of Countries
  • For 7 days
  • Water Temperature
  • Satellite Maps
  • Weather Map
  • News
  • Weather Widgets
  • user-avatar
    Login

    Hourly Weather Grigino

    Today, 21 January, Monday

    Time Temperature Precipitation Wind Pressure Humidity
    00:00 -12°C° 0 mm 4 mps 740 mmHg 88%
    01:00 -14°C° 0 mm 4 mps 740 mmHg 89%
    02:00 -15°C° 0 mm 3 mps 741 mmHg 91%
    03:00 -15°C° 0 mm 3 mps 741 mmHg 92%
    04:00 -16°C° 0 mm 3 mps 741 mmHg 92%
    05:00 -17°C° 0 mm 3 mps 741 mmHg 92%
    06:00 -17°C° 0 mm 3 mps 741 mmHg 93%
    07:00 -17°C° 0 mm 3 mps 741 mmHg 94%
    08:00 -16°C° 0 mm 2 mps 742 mmHg 94%
    09:00 -16°C° 0 mm 2 mps 742 mmHg 94%
    10:00 -16°C° 0 mm 2 mps 742 mmHg 93%
    11:00 -16°C° 0 mm 2 mps 743 mmHg 93%
    12:00 -16°C° 0 mm 2 mps 743 mmHg 93%
    13:00 -16°C° 0 mm 2 mps 743 mmHg 93%
    14:00 -17°C° 0 mm 2 mps 743 mmHg 93%
    15:00 -17°C° 0 mm 2 mps 744 mmHg 94%
    16:00 -19°C° 0 mm 3 mps 744 mmHg 94%
    17:00 -21°C° 0 mm 3 mps 744 mmHg 95%
    18:00 -21°C° 0 mm 3 mps 744 mmHg 95%
    19:00 -21°C° 0 mm 3 mps 744 mmHg 95%
    20:00 -22°C° 0 mm 3 mps 745 mmHg 95%
    21:00 -21°C° 0 mm 3 mps 745 mmHg 95%
    22:00 -21°C° 0 mm 3 mps 745 mmHg 95%
    23:00 -21°C° 0 mm 3 mps 745 mmHg 95%

    Tomorrow, 22 January, Tuesday

    Time Temperature Precipitation Wind Pressure Humidity
    00:00 -21°C° 0 mm 3 mps 746 mmHg 95%
    01:00 -21°C° 0 mm 3 mps 746 mmHg 95%
    02:00 -21°C° 0 mm 3 mps 746 mmHg 96%
    03:00 -19°C° 0 mm 3 mps 746 mmHg 95%
    04:00 -18°C° 0 mm 3 mps 747 mmHg 94%
    05:00 -17°C° 0 mm 3 mps 747 mmHg 94%
    06:00 -18°C° 0 mm 3 mps 747 mmHg 94%
    07:00 -18°C° 0 mm 3 mps 748 mmHg 95%
    08:00 -19°C° 0 mm 3 mps 748 mmHg 95%
    09:00 -18°C° 0 mm 3 mps 748 mmHg 95%
    10:00 -18°C° 0 mm 3 mps 748 mmHg 94%
    11:00 -18°C° 0 mm 3 mps 749 mmHg 94%
    12:00 -18°C° 0 mm 3 mps 749 mmHg 94%
    13:00 -18°C° 0 mm 3 mps 749 mmHg 94%
    14:00 -18°C° 0 mm 3 mps 749 mmHg 94%
    15:00 -18°C° 0 mm 3 mps 749 mmHg 94%
    16:00 -18°C° 0 mm 3 mps 749 mmHg 94%
    17:00 -18°C° 0 mm 3 mps 749 mmHg 94%
    18:00 -18°C° 0.1 mm 3 mps 749 mmHg 94%
    19:00 -18°C° 0.1 mm 3 mps 749 mmHg 94%
    20:00 -18°C° 0.1 mm 3 mps 749 mmHg 94%
    21:00 -19°C° 0 mm 3 mps 749 mmHg 95%
    22:00 -18°C° 0 mm 2 mps 749 mmHg 95%
    23:00 -19°C° 0 mm 2 mps 749 mmHg 96%

    Day after tomorrow, 23 January, Wednesday

    Time Temperature Precipitation Wind Pressure Humidity
    00:00 -20°C° 0 mm 2 mps 750 mmHg 97%
    01:00 -20°C° 0 mm 2 mps 750 mmHg 97%
    02:00 -21°C° 0 mm 2 mps 750 mmHg 98%
    03:00 -21°C° 0 mm 2 mps 750 mmHg 97%
    04:00 -21°C° 0 mm 2 mps 750 mmHg 97%
    05:00 -23°C° 0 mm 2 mps 750 mmHg 97%
    06:00 -23°C° 0 mm 2 mps 750 mmHg 96%
    07:00 -23°C° 0 mm 2 mps 751 mmHg 95%
    08:00 -23°C° 0 mm 2 mps 751 mmHg 95%
    09:00 -21°C° 0 mm 2 mps 751 mmHg 92%
    10:00 -19°C° 0 mm 2 mps 751 mmHg 90%
    11:00 -19°C° 0 mm 3 mps 751 mmHg 88%
    12:00 -18°C° 0 mm 3 mps 751 mmHg 88%
    13:00 -18°C° 0 mm 3 mps 750 mmHg 88%
    14:00 -17°C° 0 mm 3 mps 750 mmHg 89%
    15:00 -18°C° 0 mm 3 mps 750 mmHg 90%
    16:00 -18°C° 0 mm 3 mps 750 mmHg 92%
    17:00 -19°C° 0 mm 3 mps 749 mmHg 94%
    18:00 -18°C° 0 mm 3 mps 749 mmHg 94%
    19:00 -17°C° 0 mm 3 mps 749 mmHg 94%
    20:00 -17°C° 0 mm 3 mps 749 mmHg 93%
    21:00 -16°C° 0.1 mm 4 mps 748 mmHg 92%
    22:00 -14°C° 0.1 mm 4 mps 748 mmHg 92%
    23:00 -11°C° 0.1 mm 4 mps 748 mmHg 91%

    24 January, Thursday

    Time Temperature Precipitation Wind Pressure Humidity
    00:00 -11°C° 0 mm 4 mps 748 mmHg 90%
    01:00 -10°C° 0 mm 4 mps 747 mmHg 89%
    02:00 -11°C° 0 mm 5 mps 747 mmHg 89%
    03:00 -11°C° 0.1 mm 4 mps 747 mmHg 89%
    04:00 -12°C° 0.1 mm 4 mps 747 mmHg 89%
    05:00 -12°C° 0.1 mm 4 mps 746 mmHg 90%
    06:00 -14°C° 0.1 mm 4 mps 746 mmHg 91%
    07:00 -14°C° 0.1 mm 4 mps 747 mmHg 91%
    08:00 -13°C° 0.1 mm 3 mps 747 mmHg 92%
    09:00 -13°C° 0 mm 3 mps 747 mmHg 92%
    10:00 -12°C° 0 mm 3 mps 747 mmHg 92%
    11:00 -10°C° 0 mm 3 mps 748 mmHg 92%
    12:00 -10°C° 0.1 mm 3 mps 748 mmHg 90%
    13:00 -9°C° 0.1 mm 3 mps 748 mmHg 87%
    14:00 -9°C° 0.1 mm 3 mps 748 mmHg 85%
    15:00 -12°C° 0 mm 3 mps 749 mmHg 88%
    16:00 -15°C° 0 mm 3 mps 749 mmHg 91%
    17:00 -16°C° 0 mm 2 mps 749 mmHg 94%
    18:00 -17°C° 0 mm 2 mps 750 mmHg 95%
    19:00 -18°C° 0 mm 2 mps 751 mmHg 96%
    20:00 -20°C° 0 mm 2 mps 751 mmHg 97%
    21:00 -21°C° 0 mm 2 mps 752 mmHg 97%
    22:00 -21°C° 0 mm 2 mps 752 mmHg 98%
    23:00 -23°C° 0 mm 2 mps 752 mmHg 98%

    25 January, Friday

    Time Temperature Precipitation Wind Pressure Humidity
    00:00 -21°C° 0 mm 1 mps 753 mmHg 98%
    01:00 -21°C° 0 mm 1 mps 753 mmHg 98%
    02:00 -21°C° 0 mm 1 mps 754 mmHg 98%
    03:00 -21°C° 0 mm 1 mps 754 mmHg 98%
    04:00 -22°C° 0 mm 1 mps 754 mmHg 99%
    05:00 -22°C° 0 mm 1 mps 755 mmHg 99%
    06:00 -22°C° 0 mm 1 mps 755 mmHg 99%
    07:00 -22°C° 0 mm 1 mps 755 mmHg 99%
    08:00 -22°C° 0 mm 1 mps 756 mmHg 99%
    09:00 -21°C° 0 mm 0 mps 756 mmHg 98%
    10:00 -19°C° 0 mm 0 mps 756 mmHg 96%
    11:00 -17°C° 0 mm 0 mps 756 mmHg 95%
    12:00 -17°C° 0 mm 0 mps 756 mmHg 95%
    13:00 -17°C° 0 mm 0 mps 756 mmHg 95%
    14:00 -16°C° 0 mm 0 mps 756 mmHg 95%
    15:00 -18°C° 0 mm 0 mps 756 mmHg 96%
    16:00 -19°C° 0 mm 0 mps 756 mmHg 97%
    17:00 -21°C° 0 mm 1 mps 756 mmHg 97%
    18:00 -21°C° 0 mm 1 mps 756 mmHg 97%
    19:00 -21°C° 0 mm 1 mps 757 mmHg 97%
    20:00 -21°C° 0 mm 1 mps 757 mmHg 96%
    21:00 -22°C° 0 mm 1 mps 756 mmHg 96%
    22:00 -22°C° 0 mm 1 mps 756 mmHg 95%
    23:00 -22°C° 0 mm 1 mps 756 mmHg 95%

    26 January, Saturday

    Time Temperature Precipitation Wind Pressure Humidity
    00:00 -22°C° 0 mm 1 mps 756 mmHg 94%
    01:00 -22°C° 0 mm 1 mps 756 mmHg 94%
    02:00 -22°C° 0 mm 1 mps 756 mmHg 93%
    03:00 -22°C° 0 mm 1 mps 756 mmHg 93%
    04:00 -22°C° 0 mm 1 mps 756 mmHg 93%
    05:00 -21°C° 0 mm 1 mps 756 mmHg 93%
    06:00 -21°C° 0 mm 1 mps 756 mmHg 93%
    07:00 -21°C° 0 mm 1 mps 756 mmHg 93%
    08:00 -21°C° 0 mm 1 mps 756 mmHg 92%
    09:00 -20°C° 0 mm 1 mps 756 mmHg 92%
    10:00 -19°C° 0 mm 1 mps 755 mmHg 91%
    11:00 -18°C° 0 mm 1 mps 755 mmHg 90%
    12:00 -17°C° 0 mm 1 mps 755 mmHg 90%
    13:00 -17°C° 0 mm 1 mps 755 mmHg 91%
    14:00 -16°C° 0 mm 1 mps 754 mmHg 92%
    15:00 -18°C° 0 mm 1 mps 754 mmHg 92%
    16:00 -19°C° 0 mm 1 mps 754 mmHg 93%
    17:00 -20°C° 0 mm 1 mps 754 mmHg 94%
    18:00 -21°C° 0 mm 1 mps 754 mmHg 93%
    19:00 -24°C° 0 mm 2 mps 753 mmHg 92%
    20:00 -25°C° 0 mm 2 mps 753 mmHg 91%
    21:00 -25°C° 0 mm 2 mps 753 mmHg 90%
    22:00 -25°C° 0 mm 2 mps 753 mmHg 90%
    23:00 -25°C° 0 mm 2 mps 753 mmHg 90%
    Show more